Volver al catálogo

SJ-29B

ActivoCienciaGEO
NORAD 67403·PAYLOAD·🇨🇳 China

Lanzado Dec 30, 2025 desde Wenchang Space Launch Site

Loading…

TLE

ActualizadoSource: Space-Track

Época: Sep 14, 2026, 17:34 UTC

1 67403U 25315C   26257.73228741 -.00000078  00000-0  00000+0 0  9997
2 67403   3.6183  92.9315 0006794  87.2149 150.7137  1.00274052  2589

Sigue SJ-29B en tiempo real con AllMySat

Download on the App Store